Date String (YYYY-MM-DD hh:mm:ss) UTC,Instrument flags,Ambient pressure (hPa),Sample flow (lpm),Bypass flow (lpm),Sample temperature (°C),Ambient temperature (°C),ASC tube jacket temperature (°C),LED temperature (°C),Box temperature (°C),Sample RH (%),Span deviation,Mass concentration (μg/m³),Mass concentration (μg/m³),Mass concentration (μg/m³)
DateTimeUTC,F1_M11,P_M11,Q1_M11,Q2_M11,T1_M11,T2_M11,T3_M11,T4_M11,T5_M11,U1_M11,ZSPAN_M11,X0_M11,X2_M11,X1_M11
2022-05-06 09:00:00,,0821.0,5.01,0.00,29.7,28.8,00.0,38.6,31.4,14.4,0000.0,0008.62,0004.31,0003.31
2022-05-06 09:01:00,,0821.0,5.00,0.00,29.7,28.8,00.0,38.7,31.5,14.7,0000.0,0008.80,0004.43,0003.41
2022-05-06 09:02:00,,0821.0,5.00,0.00,29.7,28.8,00.0,38.7,31.5,14.9,0000.0,0008.81,0004.56,0003.51
2022-05-06 09:03:00,,0820.9,5.00,0.00,29.8,28.8,00.0,38.7,31.5,15.0,0000.0,0009.30,0004.65,0003.59
2022-05-06 09:04:00,,0820.9,4.99,0.00,29.8,28.8,00.0,38.7,31.5,15.0,0000.0,0009.89,0004.75,0003.63
2022-05-06 09:05:00,,0821.0,5.01,0.00,29.8,28.8,00.0,38.7,31.5,15.0,0000.0,0010.11,0004.80,0003.68
2022-05-06 09:06:00,,0820.9,5.00,0.00,29.8,28.8,00.0,38.7,31.5,15.1,0000.0,0009.93,0004.79,0003.70
2022-05-06 09:07:00,,0820.9,4.99,0.00,29.8,28.8,00.0,38.7,31.5,14.8,0000.0,0010.61,0004.79,0003.70
2022-05-06 09:08:00,,0820.9,5.01,0.00,29.8,28.8,00.0,38.7,31.5,14.9,0000.0,0011.52,0004.77,0003.68
2022-05-06 09:09:00,,0820.9,5.00,0.00,29.8,28.8,00.0,38.7,31.5,15.0,0000.0,0012.49,0004.87,0003.72
2022-05-06 09:10:00,,0820.8,4.99,0.00,29.8,28.8,00.0,38.7,31.5,14.9,0000.0,0012.59,0004.91,0003.75
2022-05-06 09:11:00,,0820.8,5.00,0.00,29.8,28.8,00.0,38.7,31.5,14.9,0000.0,0012.70,0004.94,0003.76
2022-05-06 09:12:00,,0820.9,5.01,0.00,29.8,28.8,00.0,38.7,31.5,13.6,0000.0,0012.75,0004.91,0003.75
2022-05-06 09:13:00,,0821.0,4.99,0.00,29.8,28.8,00.0,38.7,31.5,14.0,0000.0,0012.93,0004.81,0003.69
2022-05-06 09:14:00,,0820.9,5.01,0.00,29.7,28.8,00.0,38.7,31.4,16.1,0000.0,0013.28,0004.85,0003.72
2022-05-06 09:15:00,,0821.0,5.01,0.00,29.7,28.7,00.0,38.7,31.4,16.3,0000.0,0013.42,0004.96,0003.79
2022-05-06 09:16:00,,0821.0,4.99,0.00,29.7,28.7,00.0,38.7,31.3,15.4,0000.0,0013.46,0005.03,0003.82
2022-05-06 09:17:00,,0821.0,5.00,0.00,29.6,28.7,00.0,38.7,31.3,16.4,0000.0,0013.51,0005.06,0003.86
2022-05-06 09:18:00,,0821.0,5.02,0.00,29.6,28.6,00.0,38.6,31.3,17.1,0000.0,0013.43,0005.22,0003.95
2022-05-06 09:19:00,,0821.0,4.99,0.00,29.5,28.6,00.0,38.6,31.2,17.2,0000.0,0013.57,0005.37,0004.05
2022-05-06 09:20:00,,0821.0,5.00,0.00,29.5,28.5,00.0,38.6,31.1,16.3,0000.0,0013.69,0005.41,0004.11
2022-05-06 09:21:00,,0821.0,5.00,0.00,29.4,28.4,00.0,38.6,31.1,13.5,0000.0,0013.79,0005.39,0004.08
2022-05-06 09:22:00,,0821.1,4.99,0.00,29.4,28.4,00.0,38.6,31.1,16.0,0000.0,0013.83,0005.42,0004.08
2022-05-06 09:23:00,,0821.1,5.01,0.00,29.4,28.4,00.0,38.5,31.1,16.2,0000.0,0013.92,0005.50,0004.14
2022-05-06 09:24:00,,0821.0,4.99,0.00,29.4,28.4,00.0,38.5,31.1,15.2,0000.0,0013.83,0005.65,0004.21
2022-05-06 09:25:00,,0821.0,5.01,0.00,29.4,28.5,00.0,38.5,31.1,14.2,0000.0,0013.39,0005.67,0004.18
2022-05-06 09:26:00,,0821.0,5.00,0.00,29.4,28.5,00.0,38.5,31.1,13.2,0000.0,0012.61,0005.46,0004.06
2022-05-06 09:27:00,,0821.0,5.00,0.00,29.4,28.5,00.0,38.5,31.1,11.8,0000.0,0012.18,0005.25,0003.92
2022-05-06 09:28:00,,0821.0,5.01,0.00,29.3,28.4,00.0,38.5,31.0,13.1,0000.0,0012.17,0005.15,0003.81
2022-05-06 09:29:00,,0820.9,4.99,0.00,29.3,28.4,00.0,38.4,31.0,12.4,0000.0,0011.53,0004.95,0003.66
2022-05-06 09:30:00,,0821.0,5.00,0.00,29.3,28.4,00.0,38.4,31.0,12.0,0000.0,0010.40,0004.74,0003.47
2022-05-06 09:31:00,,0821.0,5.00,0.00,29.3,28.4,00.0,38.4,31.0,13.6,0000.0,0009.92,0004.59,0003.33
2022-05-06 09:32:00,,0821.0,4.99,0.00,29.3,28.3,00.0,38.4,30.9,14.4,0000.0,0009.84,0004.58,0003.32
2022-05-06 09:33:00,,0820.9,5.02,0.00,29.2,28.3,00.0,38.4,31.0,14.3,0000.0,0010.21,0004.53,0003.26
2022-05-06 09:34:00,,0820.9,5.00,0.00,29.3,28.4,00.0,38.3,31.0,13.2,0000.0,0010.08,0004.42,0003.17
2022-05-06 09:35:00,,0820.9,4.99,0.00,29.3,28.4,00.0,38.3,31.0,12.2,0000.0,0009.85,0004.29,0003.03
2022-05-06 09:36:00,,0820.9,5.01,0.00,29.2,28.4,00.0,38.3,31.0,12.7,0000.0,0009.42,0004.13,0002.91
2022-05-06 09:37:00,,0820.9,4.99,0.00,29.2,28.4,00.0,38.3,31.0,12.0,0000.0,0009.43,0004.10,0002.85
2022-05-06 09:38:00,,0820.9,5.01,0.00,29.2,28.4,00.0,38.3,31.0,11.1,0000.0,0009.52,0004.12,0002.83
2022-05-06 09:39:00,,0820.9,5.00,0.00,29.2,28.4,00.0,38.3,31.0,11.4,0000.0,0009.38,0004.04,0002.77
2022-05-06 09:40:00,,0820.9,5.00,0.00,29.2,28.4,00.0,38.3,31.0,11.5,0000.0,0009.22,0003.98,0002.73
2022-05-06 09:41:00,,0820.8,5.01,0.00,29.2,28.4,00.0,38.3,31.0,12.9,0000.0,0009.11,0003.93,0002.75
2022-05-06 09:42:00,,0820.8,4.99,0.00,29.2,28.4,00.0,38.3,31.0,13.9,0000.0,0008.52,0003.91,0002.76
2022-05-06 09:43:00,,0820.9,5.01,0.00,29.2,28.4,00.0,38.2,31.0,13.2,0000.0,0008.52,0003.83,0002.71
2022-05-06 09:44:00,,0820.8,5.00,0.00,29.3,28.5,00.0,38.2,31.0,12.9,0000.0,0007.87,0003.72,0002.63
2022-05-06 09:45:00,,0820.9,4.99,0.00,29.3,28.5,00.0,38.2,31.0,12.8,0000.0,0007.82,0003.69,0002.60
2022-05-06 09:46:00,,0820.8,5.00,0.00,29.3,28.5,00.0,38.2,31.0,13.0,0000.0,0007.90,0003.65,0002.60
2022-05-06 09:47:00,,0820.9,5.01,0.00,29.2,28.4,00.0,38.2,31.0,13.3,0000.0,0008.15,0003.71,0002.61
2022-05-06 09:48:00,,0820.7,4.98,0.00,29.2,28.4,00.0,38.2,31.0,13.2,0000.0,0008.17,0003.74,0002.63
2022-05-06 09:49:00,,0820.8,5.01,0.00,29.2,28.4,00.0,38.2,31.0,12.0,0000.0,0008.09,0003.72,0002.66
2022-05-06 09:50:00,,0820.7,5.00,0.00,29.2,28.4,00.0,38.2,31.0,12.3,0000.0,0008.08,0003.75,0002.69
2022-05-06 09:51:00,,0820.7,5.00,0.00,29.2,28.4,00.0,38.2,31.0,12.8,0000.0,0008.07,0003.76,0002.72
2022-05-06 09:52:00,,0820.7,5.01,0.00,29.2,28.4,00.0,38.2,31.0,13.4,0000.0,0008.64,0003.81,0002.74
2022-05-06 09:53:00,,0820.7,4.99,0.00,29.2,28.4,00.0,38.2,31.0,13.7,0000.0,0009.09,0003.80,0002.74
2022-05-06 09:54:00,,0820.7,5.01,0.00,29.2,28.4,00.0,38.2,31.0,13.5,0000.0,0010.00,0003.83,0002.76
2022-05-06 09:55:00,,0820.7,5.00,0.00,29.3,28.5,00.0,38.2,31.0,12.9,0000.0,0010.43,0003.87,0002.79
2022-05-06 09:56:00,,0820.8,5.01,0.00,29.3,28.5,00.0,38.2,31.0,13.2,0000.0,0010.44,0003.89,0002.81
2022-05-06 09:57:00,,0820.7,4.99,0.00,29.2,28.4,00.0,38.2,31.0,13.2,0000.0,0010.33,0003.92,0002.84
2022-05-06 09:58:00,,0820.7,4.99,0.00,29.2,28.4,00.0,38.2,31.0,12.2,0000.0,0009.96,0003.85,0002.83
2022-05-06 09:59:00,,0820.8,5.00,0.00,29.2,28.4,00.0,38.2,30.9,13.9,0000.0,0010.15,0003.85,0002.84
